Weather History for Tucson, AZ

Change the Weather History Date:

Tuesday, March 6, 2012

  Actual Average Record
Temperature  
Mean Temperature 65 °F 58 °F  
Max Temperature 82 °F 72 °F 93 °F (1910)
Min Temperature 47 °F 45 °F 27 °F (1896)
Degree Days  
Heating Degree Days 0 7  
Month to date heating degree days 45 45  
Since 1 July heating degree days 1277 1312  
Cooling Degree Days 0 0  
Month to date cooling degree days 0 0  
Year to date cooling degree days 2 4  
Growing Degree Days 14 (Base 50)    
Moisture  
Dew Point 13 °F    
Average Humidity 16    
Maximum Humidity 26    
Minimum Humidity 5    
Precipitation  
Precipitation 0.00 in 0.02 in 0.75 in (2000)
Month to date precipitation 0.00 0.15  
Year to date precipitation 0.22 1.95  
Snow  
Snow 0.00 in 0.00 in 0.00 in (2002)
Month to date snowfall 0.0 0.0  
Since 1 July snowfall 0.0 0.6  
Snow Depth 0.00 in    
Sea Level Pressure  
Sea Level Pressure 29.77 in    
Wind  
Wind Speed 12 mph (South)    
Max Wind Speed 25 mph    
Max Gust Speed 35 mph    
Visibility 10 miles    
Events      
T = Trace of Precipitation, MM = Missing Value Source: NWS Daily Summary

Daily Weather History Graph

Daily Weather History Graph

Search for Another Location

Airport:

Trip Planner

Search our weather history database for the weather conditions in past years. The results will help you decide how hot, cold, wet, or windy it might be!

Date:

Astronomy

Mar. 06, 2012 Rise Set
Actual Time 6:44 AM MST 6:25 PM MST
Civil Twilight 6:20 AM MST 6:50 PM MST
Nautical Twilight 5:51 AM MST 7:18 PM MST
Astronomical Twilight 5:23 AM MST 7:46 PM MST
Moon 4:59 PM MST (3/6) 5:17 AM MST (3/6)
Length of Visible Light 12h 30m
Length of Day
11h 41m
Waxing Gibbous, 96% of the Moon is Illuminated
Mar 6
Waxing Gibbous
Mar 8
Full
Mar 14
Last Quarter
Mar 22
New
Mar 30
First Quarter

Hourly Weather History & Observations

Time (MST) Temp. Dew Point Humidity Pressure Visibility Wind Dir Wind Speed Gust Speed Precip Events Conditions
12:53 AM 55.0 °F 14.0 °F 20% 29.92 in 10.0 mi Calm Calm - N/A   Clear
1:53 AM 53.1 °F 15.1 °F 22% 29.90 in 10.0 mi SE 5.8 mph - N/A   Clear
2:53 AM 53.1 °F 15.1 °F 22% 29.88 in 10.0 mi SE 4.6 mph - N/A   Clear
3:53 AM 51.1 °F 15.1 °F 24% 29.86 in 10.0 mi SSE 6.9 mph - N/A   Clear
4:53 AM 48.0 °F 16.0 °F 28% 29.86 in 10.0 mi SE 4.6 mph - N/A   Clear
5:53 AM 48.0 °F 16.0 °F 28% 29.87 in 10.0 mi SSE 4.6 mph - N/A   Clear
6:53 AM 48.0 °F 16.0 °F 28% 29.87 in 10.0 mi SE 5.8 mph - N/A   Clear
7:53 AM 54.0 °F 17.1 °F 23% 29.87 in 10.0 mi SE 12.7 mph - N/A   Clear
8:53 AM 63.0 °F 18.0 °F 18% 29.86 in 10.0 mi SSE 11.5 mph - N/A   Clear
9:53 AM 70.0 °F 19.0 °F 14% 29.85 in 10.0 mi SSE 9.2 mph - N/A   Clear
10:53 AM 75.0 °F 12.9 °F 9% 29.82 in - SSW 16.1 mph - N/A   Clear
11:53 AM 77.0 °F 10.9 °F 8% 29.80 in 10.0 mi South 8.1 mph 17.3 mph N/A   Clear
12:53 PM 79.0 °F 8.1 °F 7% 29.75 in 10.0 mi SSW 16.1 mph 24.2 mph N/A   Clear
1:53 PM 81.0 °F 10.9 °F 7% 29.71 in 10.0 mi SSW 18.4 mph 29.9 mph N/A   Clear
2:53 PM 81.0 °F 7.0 °F 6% 29.68 in 10.0 mi SSW 23.0 mph 27.6 mph N/A   Clear
3:53 PM 80.1 °F 5.0 °F 6% 29.68 in 10.0 mi SW 17.3 mph 29.9 mph N/A   Clear
4:53 PM 79.0 °F 9.0 °F 7% 29.66 in 10.0 mi SW 19.6 mph 26.5 mph N/A   Clear
5:53 PM 75.9 °F 10.0 °F 8% 29.65 in 10.0 mi SW 21.9 mph 31.1 mph N/A   Clear
6:53 PM 72.0 °F 10.0 °F 9% 29.67 in 10.0 mi WSW 10.4 mph - N/A   Clear
7:53 PM 69.8 °F 10.4 °F 10% 29.76 in 10.0 mi West 12.7 mph - N/A   Clear
8:53 PM 68.0 °F 10.9 °F 11% 29.68 in 10.0 mi WSW 15.0 mph 23.0 mph N/A   Clear
9:53 PM 66.0 °F 10.0 °F 11% 29.68 in 10.0 mi SW 11.5 mph 23.0 mph N/A   Clear
10:53 PM 64.9 °F 10.9 °F 12% 29.64 in 10.0 mi South 20.7 mph 26.5 mph N/A   Clear
11:53 PM 64.9 °F 14.0 °F 14% 29.60 in 10.0 mi South 18.4 mph 29.9 mph N/A   Clear